Time,TemperatureF,DewpointF,PressureIn,WindDirection,WindDirectionDegrees,WindSpeedMPH,WindSpeedGustMPH,Humidity,HourlyPrecipIn,Conditions,Clouds,dailyrainin,SoftwareType,DateUTC
2013-02-09 00:02:00,42.1,17.1,29.82,NW,310,2.0,5.8,36,0.00,,,-99.99,FreeWX-Wi 1.02,2013-02-09 08:02:00,
2013-02-09 00:07:00,42.1,17.1,29.82,NW,309,3.0,5.4,36,0.00,,,-99.99,FreeWX-Wi 1.02,2013-02-09 08:07:00,
2013-02-09 00:12:00,42.6,16.2,29.82,NW,316,4.0,8.7,34,0.00,,,-99.99,FreeWX-Wi 1.02,2013-02-09 08:12:00,
2013-02-09 00:17:00,42.4,16.2,29.82,NW,323,4.0,8.1,34,0.00,,,-99.99,FreeWX-Wi 1.02,2013-02-09 08:17:00,
2013-02-09 00:22:00,42.4,16.2,29.82,NNW,331,4.0,8.3,34,0.00,,,-99.99,FreeWX-Wi 1.02,2013-02-09 08:22:00,
2013-02-09 00:27:00,42.3,16.0,29.82,NNW,344,5.0,8.7,34,0.00,,,-99.99,FreeWX-Wi 1.02,2013-02-09 08:27:00,
2013-02-09 00:32:00,42.4,16.2,29.82,North,350,5.0,8.7,34,0.00,,,-99.99,FreeWX-Wi 1.02,2013-02-09 08:32:00,
2013-02-09 00:37:00,42.1,15.1,29.82,North,357,5.0,6.3,33,0.00,,,-99.99,FreeWX-Wi 1.02,2013-02-09 08:37:00,
2013-02-09 00:42:00,41.7,15.4,29.82,North,354,4.0,4.0,34,0.00,,,-99.99,FreeWX-Wi 1.02,2013-02-09 08:42:00,
2013-02-09 00:47:00,41.7,15.4,29.82,North,353,4.0,5.8,34,0.00,,,-99.99,FreeWX-Wi 1.02,2013-02-09 08:47:00,
2013-02-09 00:52:00,41.7,15.4,29.82,NNW,347,4.0,7.6,34,0.00,,,-99.99,FreeWX-Wi 1.02,2013-02-09 08:52:00,
2013-02-09 00:57:00,41.4,15.8,29.82,NNW,334,3.0,5.4,35,0.00,,,-99.99,FreeWX-Wi 1.02,2013-02-09 08:57:00,
2013-02-09 01:02:00,41.2,15.6,29.82,NW,318,2.0,5.8,35,0.00,,,-99.99,FreeWX-Wi 1.02,2013-02-09 09:02:00,
2013-02-09 01:07:00,41.2,15.6,29.82,NW,311,2.0,5.4,35,0.00,,,-99.99,FreeWX-Wi 1.02,2013-02-09 09:07:00,
2013-02-09 01:12:00,41.4,15.8,29.82,NW,312,3.0,8.1,35,0.00,,,-99.99,FreeWX-Wi 1.02,2013-02-09 09:12:00,
2013-02-09 01:17:00,41.5,15.3,29.82,NW,311,3.0,6.7,34,0.00,,,-99.99,FreeWX-Wi 1.02,2013-02-09 09:17:00,
2013-02-09 01:22:00,41.4,15.1,29.82,NW,313,3.0,5.4,34,0.00,,,-99.99,FreeWX-Wi 1.02,2013-02-09 09:22:00,
2013-02-09 01:27:00,41.5,14.5,29.82,NW,326,3.0,7.2,33,0.00,,,-99.99,FreeWX-Wi 1.02,2013-02-09 09:27:00,
2013-02-09 01:32:00,41.4,15.1,29.82,NNW,339,3.0,6.3,34,0.00,,,-99.99,FreeWX-Wi 1.02,2013-02-09 09:32:00,
2013-02-09 01:37:00,41.7,14.7,29.82,NNW,346,4.0,8.3,33,0.00,,,-99.99,FreeWX-Wi 1.02,2013-02-09 09:37:00,
2013-02-09 01:42:00,41.9,14.2,29.82,NNW,347,4.0,8.3,32,0.00,,,-99.99,FreeWX-Wi 1.02,2013-02-09 09:42:00,
2013-02-09 01:47:00,41.9,14.2,29.82,North,351,4.0,8.3,32,0.00,,,-99.99,FreeWX-Wi 1.02,2013-02-09 09:47:00,
2013-02-09 01:52:00,42.3,14.5,29.82,North,351,4.0,8.3,32,0.00,,,-99.99,FreeWX-Wi 1.02,2013-02-09 09:52:00,
2013-02-09 01:57:00,42.1,14.4,29.82,NNW,348,4.0,7.2,32,0.00,,,-99.99,FreeWX-Wi 1.02,2013-02-09 09:57:00,
2013-02-09 02:02:00,42.3,14.5,29.82,NNW,345,4.0,6.3,32,0.00,,,-99.99,FreeWX-Wi 1.02,2013-02-09 10:02:00,
2013-02-09 02:07:00,42.1,14.4,29.82,NNW,342,4.0,6.3,32,0.00,,,-99.99,FreeWX-Wi 1.02,2013-02-09 10:07:00,
2013-02-09 02:12:00,41.9,14.2,29.82,NNW,340,4.0,8.3,32,0.00,,,-99.99,FreeWX-Wi 1.02,2013-02-09 10:12:00,
2013-02-09 02:17:00,42.4,14.7,29.82,NNW,339,4.0,11.0,32,0.00,,,-99.99,FreeWX-Wi 1.02,2013-02-09 10:17:00,
2013-02-09 02:22:00,42.6,14.9,29.82,NNW,339,4.0,9.6,32,0.00,,,-99.99,FreeWX-Wi 1.02,2013-02-09 10:22:00,
2013-02-09 02:27:00,42.3,14.5,29.82,NNW,341,4.0,6.3,32,0.00,,,-99.99,FreeWX-Wi 1.02,2013-02-09 10:27:00,
2013-02-09 02:32:00,42.1,14.4,29.82,NNW,338,4.0,7.6,32,0.00,,,-99.99,FreeWX-Wi 1.02,2013-02-09 10:32:00,
2013-02-09 02:37:00,42.3,15.3,29.82,NNW,340,4.0,8.7,33,0.00,,,-99.99,FreeWX-Wi 1.02,2013-02-09 10:37:00,
2013-02-09 02:42:00,42.4,14.7,29.82,NNW,340,4.0,8.7,32,0.00,,,-99.99,FreeWX-Wi 1.02,2013-02-09 10:42:00,
2013-02-09 02:47:00,42.3,14.5,29.82,NNW,341,4.0,7.6,32,0.00,,,-99.99,FreeWX-Wi 1.02,2013-02-09 10:47:00,
2013-02-09 02:52:00,42.8,14.4,29.82,NNW,341,4.0,10.1,31,0.00,,,-99.99,FreeWX-Wi 1.02,2013-02-09 10:52:00,
2013-02-09 02:57:00,42.6,14.2,29.82,NNW,341,5.0,10.5,31,0.00,,,-99.99,FreeWX-Wi 1.02,2013-02-09 10:57:00,
2013-02-09 03:02:00,42.4,14.7,29.82,NNW,346,5.0,6.3,32,0.00,,,-99.99,FreeWX-Wi 1.02,2013-02-09 11:02:00,
2013-02-09 03:07:00,42.3,14.5,29.82,NNW,348,5.0,6.7,32,0.00,,,-99.99,FreeWX-Wi 1.02,2013-02-09 11:07:00,
2013-02-09 03:12:00,42.4,15.4,29.82,North,350,5.0,10.1,33,0.00,,,-99.99,FreeWX-Wi 1.02,2013-02-09 11:12:00,
2013-02-09 03:17:00,42.6,14.9,29.82,North,350,5.0,10.1,32,0.00,,,-99.99,FreeWX-Wi 1.02,2013-02-09 11:17:00,
2013-02-09 03:22:00,42.4,15.4,29.82,North,349,5.0,10.1,33,0.00,,,-99.99,FreeWX-Wi 1.02,2013-02-09 11:22:00,
2013-02-09 03:27:00,42.3,16.0,29.82,North,349,5.0,8.1,34,0.00,,,-99.99,FreeWX-Wi 1.02,2013-02-09 11:27:00,
2013-02-09 03:32:00,42.1,15.8,29.82,NNW,346,5.0,8.7,34,0.00,,,-99.99,FreeWX-Wi 1.02,2013-02-09 11:32:00,
2013-02-09 03:37:00,42.1,15.1,29.82,NNW,344,5.0,8.7,33,0.00,,,-99.99,FreeWX-Wi 1.02,2013-02-09 11:37:00,
2013-02-09 03:42:00,41.9,14.9,29.82,NNW,343,5.0,9.2,33,0.00,,,-99.99,FreeWX-Wi 1.02,2013-02-09 11:42:00,
2013-02-09 03:47:00,41.7,14.0,29.82,NNW,343,5.0,10.5,32,0.00,,,-99.99,FreeWX-Wi 1.02,2013-02-09 11:47:00,
2013-02-09 03:52:00,41.7,14.0,29.82,NNW,342,5.0,9.6,32,0.00,,,-99.99,FreeWX-Wi 1.02,2013-02-09 11:52:00,
2013-02-09 03:57:00,42.1,14.4,29.82,NNW,339,5.0,7.6,32,0.00,,,-99.99,FreeWX-Wi 1.02,2013-02-09 11:57:00,
2013-02-09 04:02:00,41.9,13.5,29.82,NNW,340,5.0,8.7,31,0.00,,,-99.99,FreeWX-Wi 1.02,2013-02-09 12:02:00,
2013-02-09 04:07:00,42.1,13.6,29.82,NNW,342,5.0,8.3,31,0.00,,,-99.99,FreeWX-Wi 1.02,2013-02-09 12:07:00,
2013-02-09 04:12:00,41.2,12.9,29.82,NNW,346,5.0,6.7,31,0.00,,,-99.99,FreeWX-Wi 1.02,2013-02-09 12:12:00,
2013-02-09 04:17:00,41.2,13.6,29.82,NNW,348,5.0,6.3,32,0.00,,,-99.99,FreeWX-Wi 1.02,2013-02-09 12:17:00,
2013-02-09 04:22:00,41.7,13.3,29.82,NNW,347,5.0,8.3,31,0.00,,,-99.99,FreeWX-Wi 1.02,2013-02-09 12:22:00,
2013-02-09 04:27:00,41.7,12.6,29.82,NNW,348,5.0,8.7,30,0.00,,,-99.99,FreeWX-Wi 1.02,2013-02-09 12:27:00,
2013-02-09 04:32:00,41.0,12.0,29.82,North,351,5.0,6.3,30,0.00,,,-99.99,FreeWX-Wi 1.02,2013-02-09 12:32:00,
2013-02-09 04:37:00,40.6,13.1,29.82,North,349,5.0,6.3,32,0.00,,,-99.99,FreeWX-Wi 1.02,2013-02-09 12:37:00,
2013-02-09 04:42:00,40.6,12.4,29.82,NNW,346,4.0,7.6,31,0.00,,,-99.99,FreeWX-Wi 1.02,2013-02-09 12:42:00,
2013-02-09 04:47:00,41.0,12.0,29.82,NNW,347,4.0,8.3,30,0.00,,,-99.99,FreeWX-Wi 1.02,2013-02-09 12:47:00,
2013-02-09 04:52:00,40.8,11.8,29.82,North,357,5.0,8.3,30,0.00,,,-99.99,FreeWX-Wi 1.02,2013-02-09 12:52:00,
2013-02-09 04:57:00,41.0,11.1,29.82,North,355,5.0,11.0,29,0.00,,,-99.99,FreeWX-Wi 1.02,2013-02-09 12:57:00,
2013-02-09 05:02:00,41.5,11.7,29.82,North,357,5.0,8.7,29,0.00,,,-99.99,FreeWX-Wi 1.02,2013-02-09 13:02:00,
2013-02-09 05:07:00,42.6,12.6,29.82,North,0,6.0,13.2,29,0.00,,,-99.99,FreeWX-Wi 1.02,2013-02-09 13:07:00,
2013-02-09 05:12:00,42.8,12.0,29.82,North,359,6.0,13.6,28,0.00,,,-99.99,FreeWX-Wi 1.02,2013-02-09 13:12:00,
2013-02-09 05:17:00,43.2,12.4,29.82,North,359,6.0,10.5,28,0.00,,,-99.99,FreeWX-Wi 1.02,2013-02-09 13:17:00,
2013-02-09 05:22:00,42.4,11.7,29.82,North,355,6.0,8.3,28,0.00,,,-99.99,FreeWX-Wi 1.02,2013-02-09 13:22:00,
2013-02-09 05:27:00,42.3,11.5,29.82,North,356,6.0,8.1,28,0.00,,,-99.99,FreeWX-Wi 1.02,2013-02-09 13:27:00,
2013-02-09 05:32:00,42.4,11.7,29.82,North,353,5.0,8.3,28,0.00,,,-99.99,FreeWX-Wi 1.02,2013-02-09 13:32:00,
2013-02-09 05:37:00,42.3,11.5,29.82,North,352,5.0,7.6,28,0.00,,,-99.99,FreeWX-Wi 1.02,2013-02-09 13:37:00,
2013-02-09 05:42:00,42.1,11.3,29.82,North,351,4.0,7.6,28,0.00,,,-99.99,FreeWX-Wi 1.02,2013-02-09 13:42:00,
2013-02-09 05:47:00,42.4,11.7,29.82,NNW,348,4.0,7.6,28,0.00,,,-99.99,FreeWX-Wi 1.02,2013-02-09 13:47:00,
2013-02-09 05:52:00,42.3,11.5,29.82,NNW,347,3.0,8.3,28,0.00,,,-99.99,FreeWX-Wi 1.02,2013-02-09 13:52:00,
2013-02-09 05:57:00,41.7,11.1,29.82,NNW,347,3.0,6.3,28,0.00,,,-99.99,FreeWX-Wi 1.02,2013-02-09 13:57:00,
2013-02-09 06:02:00,40.8,11.1,29.82,NNW,343,3.0,6.3,29,0.00,,,-99.99,FreeWX-Wi 1.02,2013-02-09 14:02:00,
2013-02-09 06:07:00,40.5,10.8,29.82,NNW,331,2.0,3.6,29,0.00,,,-99.99,FreeWX-Wi 1.02,2013-02-09 14:07:00,
2013-02-09 06:12:00,39.7,10.9,29.82,NW,323,2.0,2.7,30,0.00,,,-99.99,FreeWX-Wi 1.02,2013-02-09 14:12:00,
2013-02-09 06:17:00,38.7,10.6,29.85,NW,313,1.0,2.2,31,0.00,,,-99.99,FreeWX-Wi 1.02,2013-02-09 14:17:00,
2013-02-09 06:22:00,38.7,12.0,29.85,WNW,303,1.0,3.6,33,0.00,,,-99.99,FreeWX-Wi 1.02,2013-02-09 14:22:00,
2013-02-09 06:27:00,38.5,11.8,29.85,WNW,293,1.0,4.0,33,0.00,,,-99.99,FreeWX-Wi 1.02,2013-02-09 14:27:00,
2013-02-09 06:32:00,39.0,11.7,29.88,WNW,290,1.0,6.3,32,0.00,,,-99.99,FreeWX-Wi 1.02,2013-02-09 14:32:00,
2013-02-09 06:37:00,39.0,11.7,29.88,WNW,288,1.0,4.0,32,0.00,,,-99.99,FreeWX-Wi 1.02,2013-02-09 14:37:00,
2013-02-09 06:42:00,39.0,11.7,29.88,WNW,284,2.0,6.3,32,0.00,,,-99.99,FreeWX-Wi 1.02,2013-02-09 14:42:00,
2013-02-09 06:47:00,39.0,11.7,29.88,West,277,2.0,5.4,32,0.00,,,-99.99,FreeWX-Wi 1.02,2013-02-09 14:47:00,
2013-02-09 06:52:00,39.0,11.7,29.88,West,272,2.0,4.0,32,0.00,,,-99.99,FreeWX-Wi 1.02,2013-02-09 14:52:00,
2013-02-09 06:57:00,39.4,11.3,29.88,West,270,2.0,5.8,31,0.00,,,-99.99,FreeWX-Wi 1.02,2013-02-09 14:57:00,
2013-02-09 07:02:00,39.9,11.8,29.88,West,264,2.0,5.8,31,0.00,,,-99.99,FreeWX-Wi 1.02,2013-02-09 15:02:00,
2013-02-09 07:07:00,39.7,11.7,29.88,West,261,2.0,3.6,31,0.00,,,-99.99,FreeWX-Wi 1.02,2013-02-09 15:07:00,
2013-02-09 07:12:00,39.9,10.9,29.88,West,261,2.0,3.6,30,0.00,,,-99.99,FreeWX-Wi 1.02,2013-02-09 15:12:00,
2013-02-09 07:17:00,40.8,11.8,29.91,West,262,2.0,4.0,30,0.00,,,-99.99,FreeWX-Wi 1.02,2013-02-09 15:17:00,
2013-02-09 07:22:00,41.0,11.1,29.91,West,260,2.0,2.2,29,0.00,,,-99.99,FreeWX-Wi 1.02,2013-02-09 15:22:00,
2013-02-09 07:27:00,41.0,11.1,29.91,West,260,2.0,4.0,29,0.00,,,-99.99,FreeWX-Wi 1.02,2013-02-09 15:27:00,
2013-02-09 07:32:00,41.5,11.7,29.91,West,272,1.0,3.6,29,0.00,,,-99.99,FreeWX-Wi 1.02,2013-02-09 15:32:00,
2013-02-09 07:37:00,42.3,12.4,29.91,WNW,290,2.0,5.8,29,0.00,,,-99.99,FreeWX-Wi 1.02,2013-02-09 15:37:00,
2013-02-09 07:42:00,43.5,12.6,29.91,WNW,303,2.0,6.3,28,0.00,,,-99.99,FreeWX-Wi 1.02,2013-02-09 15:42:00,
2013-02-09 07:47:00,44.2,13.3,29.91,NW,319,2.0,8.1,28,0.00,,,-99.99,FreeWX-Wi 1.02,2013-02-09 15:47:00,
2013-02-09 07:52:00,45.1,13.1,29.91,NNW,333,3.0,7.2,27,0.00,,,-99.99,FreeWX-Wi 1.02,2013-02-09 15:52:00,
2013-02-09 07:57:00,45.3,13.3,29.91,NNW,336,3.0,7.6,27,0.00,,,-99.99,FreeWX-Wi 1.02,2013-02-09 15:57:00,
2013-02-09 08:02:00,45.7,13.6,29.91,NW,325,3.0,6.3,27,0.00,,,-99.99,FreeWX-Wi 1.02,2013-02-09 16:02:00,
2013-02-09 08:07:00,46.0,14.0,29.91,NW,315,4.0,8.7,27,0.00,,,-99.99,FreeWX-Wi 1.02,2013-02-09 16:07:00,
2013-02-09 08:12:00,46.4,14.2,29.91,NW,307,4.0,8.7,27,0.00,,,-99.99,FreeWX-Wi 1.02,2013-02-09 16:12:00,
2013-02-09 08:17:00,46.8,14.5,29.91,WNW,295,4.0,13.6,27,0.00,,,-99.99,FreeWX-Wi 1.02,2013-02-09 16:17:00,
2013-02-09 08:22:00,47.1,12.2,29.91,WNW,286,5.0,13.2,24,0.00,,,-99.99,FreeWX-Wi 1.02,2013-02-09 16:22:00,
2013-02-09 08:27:00,47.3,12.4,29.91,West,280,6.0,15.9,24,0.00,,,-99.99,FreeWX-Wi 1.02,2013-02-09 16:27:00,
2013-02-09 08:32:00,47.5,12.6,29.91,West,277,6.0,11.4,24,0.00,,,-99.99,FreeWX-Wi 1.02,2013-02-09 16:32:00,
2013-02-09 08:37:00,47.8,12.7,29.91,West,278,7.0,12.8,24,0.00,,,-99.99,FreeWX-Wi 1.02,2013-02-09 16:37:00,
2013-02-09 08:42:00,48.0,12.9,29.91,WNW,283,7.0,13.2,24,0.00,,,-99.99,FreeWX-Wi 1.02,2013-02-09 16:42:00,
2013-02-09 08:47:00,48.4,13.3,29.94,WNW,286,7.0,13.2,24,0.00,,,-99.99,FreeWX-Wi 1.02,2013-02-09 16:47:00,
2013-02-09 08:52:00,48.7,13.6,29.94,WNW,288,8.0,13.2,24,0.00,,,-99.99,FreeWX-Wi 1.02,2013-02-09 16:52:00,
2013-02-09 08:57:00,49.1,13.8,29.94,WNW,287,7.0,13.2,24,0.00,,,-99.99,FreeWX-Wi 1.02,2013-02-09 16:57:00,
2013-02-09 09:02:00,49.3,14.0,29.94,WNW,286,8.0,14.5,24,0.00,,,-99.99,FreeWX-Wi 1.02,2013-02-09 17:02:00,
2013-02-09 09:07:00,49.1,13.8,29.94,WNW,283,8.0,15.0,24,0.00,,,-99.99,FreeWX-Wi 1.02,2013-02-09 17:07:00,
2013-02-09 09:12:00,49.3,14.0,29.94,West,281,8.0,15.4,24,0.00,,,-99.99,FreeWX-Wi 1.02,2013-02-09 17:12:00,
2013-02-09 09:17:00,49.8,14.5,29.94,West,280,8.0,15.4,24,0.00,,,-99.99,FreeWX-Wi 1.02,2013-02-09 17:17:00,
2013-02-09 09:22:00,49.6,14.4,29.94,West,279,9.0,17.4,24,0.00,,,-99.99,FreeWX-Wi 1.02,2013-02-09 17:22:00,
2013-02-09 09:27:00,49.6,14.4,29.94,West,279,10.0,18.8,24,0.00,,,-99.99,FreeWX-Wi 1.02,2013-02-09 17:27:00,
2013-02-09 09:32:00,50.0,14.7,29.94,West,280,10.0,17.9,24,0.00,,,-99.99,FreeWX-Wi 1.02,2013-02-09 17:32:00,
2013-02-09 09:37:00,50.2,14.7,29.94,West,280,9.0,15.4,24,0.00,,,-99.99,FreeWX-Wi 1.02,2013-02-09 17:37:00,
2013-02-09 09:42:00,50.5,12.0,29.94,West,280,9.0,16.3,21,0.00,,,-99.99,FreeWX-Wi 1.02,2013-02-09 17:42:00,
2013-02-09 09:47:00,50.9,12.4,29.94,West,281,9.0,15.4,21,0.00,,,-99.99,FreeWX-Wi 1.02,2013-02-09 17:47:00,
2013-02-09 09:52:00,50.9,12.4,29.94,West,281,9.0,14.5,21,0.00,,,-99.99,FreeWX-Wi 1.02,2013-02-09 17:52:00,
2013-02-09 09:57:00,51.3,12.7,29.94,WNW,285,8.0,11.0,21,0.00,,,-99.99,FreeWX-Wi 1.02,2013-02-09 17:57:00,
2013-02-09 10:02:00,51.8,13.1,29.94,WNW,284,8.0,20.6,21,0.00,,,-99.99,FreeWX-Wi 1.02,2013-02-09 18:02:00,
2013-02-09 10:07:00,52.3,13.6,29.94,WNW,283,8.0,14.5,21,0.00,,,-99.99,FreeWX-Wi 1.02,2013-02-09 18:07:00,
2013-02-09 10:12:00,52.3,13.6,29.94,WNW,286,8.0,15.0,21,0.00,,,-99.99,FreeWX-Wi 1.02,2013-02-09 18:12:00,
2013-02-09 10:17:00,52.7,13.8,29.94,WNW,287,8.0,15.0,21,0.00,,,-99.99,FreeWX-Wi 1.02,2013-02-09 18:17:00,
2013-02-09 10:22:00,53.2,14.4,29.94,WNW,284,8.0,10.1,21,0.00,,,-99.99,FreeWX-Wi 1.02,2013-02-09 18:22:00,
2013-02-09 10:27:00,53.4,14.5,29.94,West,281,8.0,13.2,21,0.00,,,-99.99,FreeWX-Wi 1.02,2013-02-09 18:27:00,
2013-02-09 10:32:00,54.0,13.8,29.97,WNW,282,8.0,11.0,20,0.00,,,-99.99,FreeWX-Wi 1.02,2013-02-09 18:32:00,
2013-02-09 10:37:00,54.1,14.0,29.97,WNW,284,8.0,12.3,20,0.00,,,-99.99,FreeWX-Wi 1.02,2013-02-09 18:37:00,
2013-02-09 10:42:00,53.8,13.6,29.97,WNW,285,7.0,15.0,20,0.00,,,-99.99,FreeWX-Wi 1.02,2013-02-09 18:42:00,
2013-02-09 10:47:00,54.1,14.0,29.97,WNW,286,7.0,10.1,20,0.00,,,-99.99,FreeWX-Wi 1.02,2013-02-09 18:47:00,
2013-02-09 10:53:00,54.1,14.0,29.97,WNW,285,8.0,19.7,20,0.00,,,-99.99,FreeWX-Wi 1.02,2013-02-09 18:53:00,
2013-02-09 10:58:00,54.3,14.2,29.97,WNW,288,8.0,17.9,20,0.00,,,-99.99,FreeWX-Wi 1.02,2013-02-09 18:58:00,
2013-02-09 11:03:00,54.5,14.2,29.97,WNW,287,8.0,14.1,20,0.00,,,-99.99,FreeWX-Wi 1.02,2013-02-09 19:03:00,
2013-02-09 11:08:00,54.5,14.2,29.97,WNW,286,9.0,15.4,20,0.00,,,-99.99,FreeWX-Wi 1.02,2013-02-09 19:08:00,
2013-02-09 11:13:00,54.5,14.2,29.97,WNW,285,9.0,18.3,20,0.00,,,-99.99,FreeWX-Wi 1.02,2013-02-09 19:13:00,
2013-02-09 11:18:00,54.7,14.4,29.94,WNW,284,10.0,15.9,20,0.00,,,-99.99,FreeWX-Wi 1.02,2013-02-09 19:18:00,
2013-02-09 11:23:00,55.2,14.9,29.94,WNW,283,10.0,20.1,20,0.00,,,-99.99,FreeWX-Wi 1.02,2013-02-09 19:23:00,
2013-02-09 11:28:00,55.4,15.1,29.94,WNW,282,9.0,15.4,20,0.00,,,-99.99,FreeWX-Wi 1.02,2013-02-09 19:28:00,
2013-02-09 11:33:00,55.6,15.1,29.97,West,280,10.0,17.4,20,0.00,,,-99.99,FreeWX-Wi 1.02,2013-02-09 19:33:00,
2013-02-09 11:38:00,55.8,15.3,29.97,West,278,10.0,17.4,20,0.00,,,-99.99,FreeWX-Wi 1.02,2013-02-09 19:38:00,
2013-02-09 11:43:00,55.8,15.3,29.97,West,280,9.0,16.3,20,0.00,,,-99.99,FreeWX-Wi 1.02,2013-02-09 19:43:00,
2013-02-09 11:48:00,56.3,15.8,29.97,West,277,10.0,15.4,20,0.00,,,-99.99,FreeWX-Wi 1.02,2013-02-09 19:48:00,
2013-02-09 11:53:00,56.3,15.8,29.97,West,277,10.0,17.4,20,0.00,,,-99.99,FreeWX-Wi 1.02,2013-02-09 19:53:00,
2013-02-09 11:58:00,56.3,15.8,29.97,West,274,11.0,15.9,20,0.00,,,-99.99,FreeWX-Wi 1.02,2013-02-09 19:58:00,
2013-02-09 12:03:00,56.3,15.8,29.97,West,275,10.0,18.3,20,0.00,,,-99.99,FreeWX-Wi 1.02,2013-02-09 20:03:00,
2013-02-09 12:08:00,56.7,16.0,29.97,West,277,10.0,13.2,20,0.00,,,-99.99,FreeWX-Wi 1.02,2013-02-09 20:08:00,
2013-02-09 12:13:00,56.8,16.2,29.97,West,277,10.0,13.2,20,0.00,,,-99.99,FreeWX-Wi 1.02,2013-02-09 20:13:00,
2013-02-09 12:18:00,56.8,16.2,29.94,West,278,10.0,19.2,20,0.00,,,-99.99,FreeWX-Wi 1.02,2013-02-09 20:18:00,
2013-02-09 12:23:00,57.0,16.3,29.94,West,281,10.0,13.2,20,0.00,,,-99.99,FreeWX-Wi 1.02,2013-02-09 20:23:00,
2013-02-09 12:28:00,56.8,16.2,29.94,West,281,10.0,19.2,20,0.00,,,-99.99,FreeWX-Wi 1.02,2013-02-09 20:28:00,
2013-02-09 12:33:00,57.0,16.3,29.97,WNW,282,10.0,15.0,20,0.00,,,-99.99,FreeWX-Wi 1.02,2013-02-09 20:33:00,
2013-02-09 12:38:00,57.4,15.4,29.97,West,280,10.0,16.3,19,0.00,,,-99.99,FreeWX-Wi 1.02,2013-02-09 20:38:00,
2013-02-09 12:43:00,57.2,15.3,29.97,West,279,10.0,15.0,19,0.00,,,-99.99,FreeWX-Wi 1.02,2013-02-09 20:43:00,
2013-02-09 12:48:00,57.6,15.6,29.97,West,280,10.0,20.6,19,0.00,,,-99.99,FreeWX-Wi 1.02,2013-02-09 20:48:00,
2013-02-09 12:53:00,57.7,15.8,29.97,West,277,10.0,16.8,19,0.00,,,-99.99,FreeWX-Wi 1.02,2013-02-09 20:53:00,
2013-02-09 12:58:00,57.7,15.8,29.97,West,278,9.0,16.3,19,0.00,,,-99.99,FreeWX-Wi 1.02,2013-02-09 20:58:00,
2013-02-09 13:03:00,57.7,15.8,29.97,West,275,10.0,19.7,19,0.00,,,-99.99,FreeWX-Wi 1.02,2013-02-09 21:03:00,
2013-02-09 13:08:00,57.7,15.8,29.97,West,272,10.0,20.6,19,0.00,,,-99.99,FreeWX-Wi 1.02,2013-02-09 21:08:00,
2013-02-09 13:13:00,57.9,16.0,29.97,West,274,10.0,15.9,19,0.00,,,-99.99,FreeWX-Wi 1.02,2013-02-09 21:13:00,
2013-02-09 13:18:00,57.9,16.0,29.97,West,275,10.0,17.4,19,0.00,,,-99.99,FreeWX-Wi 1.02,2013-02-09 21:18:00,
2013-02-09 13:23:00,57.7,15.8,29.97,West,274,10.0,19.2,19,0.00,,,-99.99,FreeWX-Wi 1.02,2013-02-09 21:23:00,
2013-02-09 13:28:00,57.9,16.0,29.97,West,276,10.0,17.0,19,0.00,,,-99.99,FreeWX-Wi 1.02,2013-02-09 21:28:00,
2013-02-09 13:33:00,57.9,16.0,29.94,West,278,10.0,17.4,19,0.00,,,-99.99,FreeWX-Wi 1.02,2013-02-09 21:33:00,
2013-02-09 13:38:00,57.9,16.0,29.94,West,280,10.0,19.7,19,0.00,,,-99.99,FreeWX-Wi 1.02,2013-02-09 21:38:00,
2013-02-09 13:43:00,58.1,16.2,29.94,West,279,10.0,16.3,19,0.00,,,-99.99,FreeWX-Wi 1.02,2013-02-09 21:43:00,
2013-02-09 13:48:00,58.1,16.2,29.97,West,276,10.0,19.2,19,0.00,,,-99.99,FreeWX-Wi 1.02,2013-02-09 21:48:00,
2013-02-09 13:53:00,58.1,16.2,29.97,West,278,11.0,17.4,19,0.00,,,-99.99,FreeWX-Wi 1.02,2013-02-09 21:53:00,
2013-02-09 13:58:00,58.3,16.2,29.97,West,276,11.0,19.7,19,0.00,,,-99.99,FreeWX-Wi 1.02,2013-02-09 21:58:00,
2013-02-09 14:03:00,58.3,16.2,29.97,West,274,11.0,17.4,19,0.00,,,-99.99,FreeWX-Wi 1.02,2013-02-09 22:03:00,
2013-02-09 14:08:00,58.8,16.7,29.97,West,273,11.0,17.4,19,0.00,,,-99.99,FreeWX-Wi 1.02,2013-02-09 22:08:00,
2013-02-09 14:13:00,58.5,16.3,29.97,West,274,11.0,15.0,19,0.00,,,-99.99,FreeWX-Wi 1.02,2013-02-09 22:13:00,
2013-02-09 14:18:00,58.6,16.5,29.97,West,274,11.0,19.7,19,0.00,,,-99.99,FreeWX-Wi 1.02,2013-02-09 22:18:00,
2013-02-09 14:23:00,58.8,16.7,29.97,West,276,10.0,16.8,19,0.00,,,-99.99,FreeWX-Wi 1.02,2013-02-09 22:23:00,
2013-02-09 14:28:00,58.5,16.3,29.97,West,276,10.0,16.3,19,0.00,,,-99.99,FreeWX-Wi 1.02,2013-02-09 22:28:00,
2013-02-09 14:33:00,58.5,16.3,29.97,West,277,10.0,15.0,19,0.00,,,-99.99,FreeWX-Wi 1.02,2013-02-09 22:33:00,
2013-02-09 14:38:00,58.6,16.5,29.97,West,276,10.0,16.8,19,0.00,,,-99.99,FreeWX-Wi 1.02,2013-02-09 22:38:00,
2013-02-09 14:43:00,58.6,16.5,29.97,West,275,10.0,16.8,19,0.00,,,-99.99,FreeWX-Wi 1.02,2013-02-09 22:43:00,
2013-02-09 14:48:00,58.3,16.2,29.97,West,278,10.0,15.4,19,0.00,,,-99.99,FreeWX-Wi 1.02,2013-02-09 22:48:00,
2013-02-09 14:53:00,58.3,16.2,29.97,West,275,10.0,16.8,19,0.00,,,-99.99,FreeWX-Wi 1.02,2013-02-09 22:53:00,
2013-02-09 14:58:00,58.3,16.2,29.97,West,273,10.0,18.8,19,0.00,,,-99.99,FreeWX-Wi 1.02,2013-02-09 22:58:00,
2013-02-09 15:03:00,58.3,16.2,29.97,West,273,10.0,15.0,19,0.00,,,-99.99,FreeWX-Wi 1.02,2013-02-09 23:03:00,
2013-02-09 15:08:00,58.5,16.3,29.97,West,274,10.0,15.0,19,0.00,,,-99.99,FreeWX-Wi 1.02,2013-02-09 23:08:00,
2013-02-09 15:13:00,58.8,16.7,29.97,West,274,10.0,19.7,19,0.00,,,-99.99,FreeWX-Wi 1.02,2013-02-09 23:13:00,
2013-02-09 15:18:00,59.2,16.9,29.97,West,274,10.0,13.2,19,0.00,,,-99.99,FreeWX-Wi 1.02,2013-02-09 23:18:00,
2013-02-09 15:23:00,59.0,16.9,29.97,West,275,10.0,15.4,19,0.00,,,-99.99,FreeWX-Wi 1.02,2013-02-09 23:23:00,
2013-02-09 15:28:00,58.3,16.2,29.97,West,276,10.0,17.9,19,0.00,,,-99.99,FreeWX-Wi 1.02,2013-02-09 23:28:00,
2013-02-09 15:33:00,58.5,16.3,29.97,West,274,10.0,15.4,19,0.00,,,-99.99,FreeWX-Wi 1.02,2013-02-09 23:33:00,
2013-02-09 15:38:00,58.1,16.2,29.97,West,274,10.0,19.7,19,0.00,,,-99.99,FreeWX-Wi 1.02,2013-02-09 23:38:00,
2013-02-09 15:43:00,58.1,16.2,29.97,West,273,10.0,19.7,19,0.00,,,-99.99,FreeWX-Wi 1.02,2013-02-09 23:43:00,
2013-02-09 15:48:00,57.6,15.6,29.97,West,272,10.0,17.0,19,0.00,,,-99.99,FreeWX-Wi 1.02,2013-02-09 23:48:00,
2013-02-09 15:53:00,56.8,16.2,29.97,West,271,10.0,10.5,20,0.00,,,-99.99,FreeWX-Wi 1.02,2013-02-09 23:53:00,
2013-02-09 15:58:00,56.7,16.0,29.97,West,271,10.0,18.3,20,0.00,,,-99.99,FreeWX-Wi 1.02,2013-02-09 23:58:00,
2013-02-09 16:03:00,56.3,15.8,29.97,West,274,10.0,16.8,20,0.00,,,-99.99,FreeWX-Wi 1.02,2013-02-10 00:03:00,
2013-02-09 16:08:00,56.1,15.6,29.97,West,273,10.0,13.6,20,0.00,,,-99.99,FreeWX-Wi 1.02,2013-02-10 00:08:00,
2013-02-09 16:13:00,55.6,15.1,29.97,West,274,9.0,15.0,20,0.00,,,-99.99,FreeWX-Wi 1.02,2013-02-10 00:13:00,
2013-02-09 16:18:00,55.0,14.7,29.97,West,275,9.0,15.4,20,0.00,,,-99.99,FreeWX-Wi 1.02,2013-02-10 00:18:00,
2013-02-09 16:23:00,54.9,14.5,29.97,West,276,10.0,17.9,20,0.00,,,-99.99,FreeWX-Wi 1.02,2013-02-10 00:23:00,
2013-02-09 16:28:00,54.5,14.2,29.97,West,278,9.0,13.2,20,0.00,,,-99.99,FreeWX-Wi 1.02,2013-02-10 00:28:00,
2013-02-09 16:33:00,54.0,13.8,29.97,West,276,9.0,14.1,20,0.00,,,-99.99,FreeWX-Wi 1.02,2013-02-10 00:33:00,
2013-02-09 16:38:00,53.4,14.5,29.97,West,276,9.0,18.8,21,0.00,,,-99.99,FreeWX-Wi 1.02,2013-02-10 00:38:00,
2013-02-09 16:43:00,53.2,14.4,29.97,West,277,9.0,12.8,21,0.00,,,-99.99,FreeWX-Wi 1.02,2013-02-10 00:43:00,
2013-02-09 16:48:00,52.7,13.8,29.97,West,277,9.0,13.2,21,0.00,,,-99.99,FreeWX-Wi 1.02,2013-02-10 00:48:00,
2013-02-09 16:53:00,52.5,13.8,29.97,West,276,8.0,14.1,21,0.00,,,-99.99,FreeWX-Wi 1.02,2013-02-10 00:53:00,
2013-02-09 16:58:00,52.3,13.6,29.97,West,273,8.0,14.5,21,0.00,,,-99.99,FreeWX-Wi 1.02,2013-02-10 00:58:00,
2013-02-09 17:03:00,51.8,13.1,29.97,West,275,9.0,17.9,21,0.00,,,-99.99,FreeWX-Wi 1.02,2013-02-10 01:03:00,
2013-02-09 17:08:00,51.6,12.9,29.97,West,275,8.0,13.2,21,0.00,,,-99.99,FreeWX-Wi 1.02,2013-02-10 01:08:00,
2013-02-09 17:13:00,51.1,12.6,29.97,West,276,8.0,10.5,21,0.00,,,-99.99,FreeWX-Wi 1.02,2013-02-10 01:13:00,
2013-02-09 17:18:00,50.9,12.4,29.97,West,276,8.0,8.7,21,0.00,,,-99.99,FreeWX-Wi 1.02,2013-02-10 01:18:00,
2013-02-09 17:23:00,50.7,12.2,29.97,West,280,7.0,15.0,21,0.00,,,-99.99,FreeWX-Wi 1.02,2013-02-10 01:23:00,
2013-02-09 17:28:00,50.4,11.8,29.97,WNW,282,7.0,11.0,21,0.00,,,-99.99,FreeWX-Wi 1.02,2013-02-10 01:28:00,
2013-02-09 17:33:00,50.2,11.8,29.97,WNW,282,6.0,10.5,21,0.00,,,-99.99,FreeWX-Wi 1.02,2013-02-10 01:33:00,
2013-02-09 17:38:00,50.0,11.7,29.97,WNW,282,6.0,10.5,21,0.00,,,-99.99,FreeWX-Wi 1.02,2013-02-10 01:38:00,
2013-02-09 17:43:00,49.8,11.5,29.97,WNW,283,6.0,12.3,21,0.00,,,-99.99,FreeWX-Wi 1.02,2013-02-10 01:43:00,
2013-02-09 17:48:00,49.6,11.3,29.97,WNW,283,6.0,11.0,21,0.00,,,-99.99,FreeWX-Wi 1.02,2013-02-10 01:48:00,
2013-02-09 17:53:00,49.3,10.9,29.97,West,280,6.0,8.3,21,0.00,,,-99.99,FreeWX-Wi 1.02,2013-02-10 01:53:00,
2013-02-09 17:58:00,49.1,10.9,29.97,West,278,6.0,10.1,21,0.00,,,-99.99,FreeWX-Wi 1.02,2013-02-10 01:58:00,
2013-02-09 18:03:00,49.1,10.9,29.97,West,280,5.0,10.5,21,0.00,,,-99.99,FreeWX-Wi 1.02,2013-02-10 02:03:00,
2013-02-09 18:08:00,48.9,10.8,29.97,West,280,5.0,8.1,21,0.00,,,-99.99,FreeWX-Wi 1.02,2013-02-10 02:08:00,
2013-02-09 18:13:00,48.7,10.6,29.97,West,279,5.0,11.0,21,0.00,,,-99.99,FreeWX-Wi 1.02,2013-02-10 02:13:00,
2013-02-09 18:18:00,48.9,10.8,29.97,West,278,5.0,10.5,21,0.00,,,-99.99,FreeWX-Wi 1.02,2013-02-10 02:18:00,
2013-02-09 18:23:00,48.7,10.6,29.97,West,280,5.0,8.7,21,0.00,,,-99.99,FreeWX-Wi 1.02,2013-02-10 02:23:00,
2013-02-09 18:28:00,48.6,10.4,29.97,WNW,282,5.0,7.6,21,0.00,,,-99.99,FreeWX-Wi 1.02,2013-02-10 02:28:00,
2013-02-09 18:33:00,48.4,10.2,29.97,West,280,5.0,7.2,21,0.00,,,-99.99,FreeWX-Wi 1.02,2013-02-10 02:33:00,
2013-02-09 18:38:00,48.0,10.9,29.97,West,280,5.0,9.2,22,0.00,,,-99.99,FreeWX-Wi 1.02,2013-02-10 02:38:00,
2013-02-09 18:43:00,48.0,10.9,29.97,West,278,4.0,9.6,22,0.00,,,-99.99,FreeWX-Wi 1.02,2013-02-10 02:43:00,
2013-02-09 18:48:00,47.7,10.8,29.97,West,281,4.0,5.4,22,0.00,,,-99.99,FreeWX-Wi 1.02,2013-02-10 02:48:00,
2013-02-09 18:53:00,47.7,10.8,29.97,WNW,282,4.0,5.8,22,0.00,,,-99.99,FreeWX-Wi 1.02,2013-02-10 02:53:00,
2013-02-09 18:58:00,47.7,10.8,29.97,WNW,286,3.0,5.4,22,0.00,,,-99.99,FreeWX-Wi 1.02,2013-02-10 02:58:00,
2013-02-09 19:03:00,47.3,10.4,29.97,WNW,293,3.0,8.1,22,0.00,,,-99.99,FreeWX-Wi 1.02,2013-02-10 03:03:00,
2013-02-09 19:08:00,47.1,10.2,29.97,NW,304,3.0,3.6,22,0.00,,,-99.99,FreeWX-Wi 1.02,2013-02-10 03:08:00,
2013-02-09 19:13:00,47.5,10.6,29.97,NW,319,2.0,3.6,22,0.00,,,-99.99,FreeWX-Wi 1.02,2013-02-10 03:13:00,
2013-02-09 19:18:00,47.3,10.4,30.00,NNW,331,2.0,3.6,22,0.00,,,-99.99,FreeWX-Wi 1.02,2013-02-10 03:18:00,
2013-02-09 19:23:00,47.3,10.4,30.00,NNW,343,2.0,4.9,22,0.00,,,-99.99,FreeWX-Wi 1.02,2013-02-10 03:23:00,
2013-02-09 19:28:00,47.5,10.6,30.00,North,351,2.0,7.6,22,0.00,,,-99.99,FreeWX-Wi 1.02,2013-02-10 03:28:00,
2013-02-09 19:33:00,48.0,10.9,30.00,North,352,2.0,7.6,22,0.00,,,-99.99,FreeWX-Wi 1.02,2013-02-10 03:33:00,
2013-02-09 19:38:00,48.4,10.2,30.00,North,352,2.0,6.3,21,0.00,,,-99.99,FreeWX-Wi 1.02,2013-02-10 03:38:00,
2013-02-09 19:43:00,47.7,10.8,30.00,North,351,2.0,4.0,22,0.00,,,-99.99,FreeWX-Wi 1.02,2013-02-10 03:43:00,
2013-02-09 19:48:00,48.2,10.0,30.00,North,350,2.0,5.4,21,0.00,,,-99.99,FreeWX-Wi 1.02,2013-02-10 03:48:00,
2013-02-09 19:53:00,47.8,10.9,30.00,North,350,2.0,4.9,22,0.00,,,-99.99,FreeWX-Wi 1.02,2013-02-10 03:53:00,
2013-02-09 19:58:00,48.2,10.0,30.00,NNW,346,2.0,7.6,21,0.00,,,-99.99,FreeWX-Wi 1.02,2013-02-10 03:58:00,
2013-02-09 20:03:00,47.8,10.9,30.00,NNW,346,2.0,8.1,22,0.00,,,-99.99,FreeWX-Wi 1.02,2013-02-10 04:03:00,
2013-02-09 20:08:00,47.7,10.8,30.00,NNW,339,2.0,4.0,22,0.00,,,-99.99,FreeWX-Wi 1.02,2013-02-10 04:08:00,
2013-02-09 20:13:00,48.0,10.9,30.00,NNW,336,2.0,5.8,22,0.00,,,-99.99,FreeWX-Wi 1.02,2013-02-10 04:13:00,
2013-02-09 20:18:00,47.7,10.8,30.00,NNW,329,2.0,8.1,22,0.00,,,-99.99,FreeWX-Wi 1.02,2013-02-10 04:18:00,
2013-02-09 20:23:00,47.7,10.8,30.00,NW,313,3.0,8.7,22,0.00,,,-99.99,FreeWX-Wi 1.02,2013-02-10 04:23:00,
2013-02-09 20:28:00,47.5,10.6,30.00,NW,306,3.0,7.6,22,0.00,,,-99.99,FreeWX-Wi 1.02,2013-02-10 04:28:00,
2013-02-09 20:33:00,47.5,10.6,30.00,WNW,300,3.0,8.3,22,0.00,,,-99.99,FreeWX-Wi 1.02,2013-02-10 04:33:00,
2013-02-09 20:38:00,47.3,10.4,30.00,WNW,296,3.0,5.8,22,0.00,,,-99.99,FreeWX-Wi 1.02,2013-02-10 04:38:00,
2013-02-09 20:43:00,47.1,10.2,30.00,WNW,292,3.0,4.5,22,0.00,,,-99.99,FreeWX-Wi 1.02,2013-02-10 04:43:00,
2013-02-09 20:48:00,47.1,10.2,30.00,WNW,294,3.0,6.3,22,0.00,,,-99.99,FreeWX-Wi 1.02,2013-02-10 04:48:00,
2013-02-09 20:53:00,46.9,10.0,30.00,WNW,298,3.0,6.7,22,0.00,,,-99.99,FreeWX-Wi 1.02,2013-02-10 04:53:00,
2013-02-09 20:58:00,46.9,10.0,30.00,WNW,300,2.0,7.6,22,0.00,,,-99.99,FreeWX-Wi 1.02,2013-02-10 04:58:00,
2013-02-09 21:03:00,46.9,10.0,30.00,WNW,302,3.0,7.6,22,0.00,,,-99.99,FreeWX-Wi 1.02,2013-02-10 05:03:00,
2013-02-09 21:08:00,47.1,10.2,30.00,NW,307,3.0,8.3,22,0.00,,,-99.99,FreeWX-Wi 1.02,2013-02-10 05:08:00,
2013-02-09 21:13:00,47.3,10.4,30.00,NW,311,3.0,7.6,22,0.00,,,-99.99,FreeWX-Wi 1.02,2013-02-10 05:13:00,
2013-02-09 21:18:00,46.9,10.0,30.00,NW,313,3.0,5.4,22,0.00,,,-99.99,FreeWX-Wi 1.02,2013-02-10 05:18:00,
2013-02-09 21:23:00,47.1,10.2,30.00,NW,313,3.0,7.6,22,0.00,,,-99.99,FreeWX-Wi 1.02,2013-02-10 05:23:00,
2013-02-09 21:28:00,47.3,10.4,30.00,NW,320,3.0,8.1,22,0.00,,,-99.99,FreeWX-Wi 1.02,2013-02-10 05:28:00,
2013-02-09 21:33:00,47.3,10.4,30.00,NW,323,3.0,5.4,22,0.00,,,-99.99,FreeWX-Wi 1.02,2013-02-10 05:33:00,
2013-02-09 21:38:00,46.9,10.0,30.00,NW,320,3.0,5.8,22,0.00,,,-99.99,FreeWX-Wi 1.02,2013-02-10 05:38:00,
2013-02-09 21:43:00,46.9,10.0,30.00,NW,319,3.0,7.6,22,0.00,,,-99.99,FreeWX-Wi 1.02,2013-02-10 05:43:00,
2013-02-09 21:48:00,46.6,9.9,30.00,NW,323,3.0,6.3,22,0.00,,,-99.99,FreeWX-Wi 1.02,2013-02-10 05:48:00,
2013-02-09 21:53:00,46.2,9.5,30.00,NNW,330,2.0,5.8,22,0.00,,,-99.99,FreeWX-Wi 1.02,2013-02-10 05:53:00,
2013-02-09 21:58:00,45.7,9.0,30.00,NNW,329,2.0,5.8,22,0.00,,,-99.99,FreeWX-Wi 1.02,2013-02-10 05:58:00,
2013-02-09 22:03:00,45.3,8.8,30.00,NNW,329,2.0,4.0,22,0.00,,,-99.99,FreeWX-Wi 1.02,2013-02-10 06:03:00,
2013-02-09 22:08:00,45.5,9.0,30.00,NW,325,2.0,5.4,22,0.00,,,-99.99,FreeWX-Wi 1.02,2013-02-10 06:08:00,
2013-02-09 22:13:00,45.7,9.0,30.00,NW,318,2.0,7.6,22,0.00,,,-99.99,FreeWX-Wi 1.02,2013-02-10 06:13:00,
2013-02-09 22:18:00,45.7,11.8,30.00,NW,310,2.0,7.2,25,0.00,,,-99.99,FreeWX-Wi 1.02,2013-02-10 06:18:00,
2013-02-09 22:23:00,45.9,12.0,30.00,WNW,302,3.0,6.3,25,0.00,,,-99.99,FreeWX-Wi 1.02,2013-02-10 06:23:00,
2013-02-09 22:28:00,46.2,12.4,30.00,WNW,301,3.0,6.3,25,0.00,,,-99.99,FreeWX-Wi 1.02,2013-02-10 06:28:00,
2013-02-09 22:33:00,46.6,11.7,30.00,WNW,299,3.0,6.3,24,0.00,,,-99.99,FreeWX-Wi 1.02,2013-02-10 06:33:00,
2013-02-09 22:38:00,46.2,12.4,30.00,NW,305,3.0,4.5,25,0.00,,,-99.99,FreeWX-Wi 1.02,2013-02-10 06:38:00,
2013-02-09 22:43:00,46.8,10.0,30.00,NW,317,3.0,6.3,22,0.00,,,-99.99,FreeWX-Wi 1.02,2013-02-10 06:43:00,
2013-02-09 22:48:00,46.6,11.7,30.00,NW,325,3.0,8.7,24,0.00,,,-99.99,FreeWX-Wi 1.02,2013-02-10 06:48:00,
2013-02-09 22:53:00,46.2,14.2,30.00,NW,324,3.0,6.3,27,0.00,,,-99.99,FreeWX-Wi 1.02,2013-02-10 06:53:00,
2013-02-09 22:58:00,46.0,14.0,30.00,NW,322,3.0,6.3,27,0.00,,,-99.99,FreeWX-Wi 1.02,2013-02-10 06:58:00,
2013-02-09 23:03:00,45.9,13.8,30.00,NW,318,3.0,9.6,27,0.00,,,-99.99,FreeWX-Wi 1.02,2013-02-10 07:03:00,
2013-02-09 23:08:00,45.9,13.8,30.00,NW,312,4.0,10.1,27,0.00,,,-99.99,FreeWX-Wi 1.02,2013-02-10 07:08:00,
2013-02-09 23:13:00,46.0,14.0,30.00,NW,305,4.0,8.1,27,0.00,,,-99.99,FreeWX-Wi 1.02,2013-02-10 07:13:00,
2013-02-09 23:18:00,46.0,14.0,30.00,NW,304,4.0,5.8,27,0.00,,,-99.99,FreeWX-Wi 1.02,2013-02-10 07:18:00,
2013-02-09 23:23:00,45.5,13.5,30.00,NW,306,4.0,5.8,27,0.00,,,-99.99,FreeWX-Wi 1.02,2013-02-10 07:23:00,
2013-02-09 23:28:00,45.5,11.7,30.00,NW,315,3.0,7.2,25,0.00,,,-99.99,FreeWX-Wi 1.02,2013-02-10 07:28:00,
2013-02-09 23:33:00,45.3,11.7,30.03,NNW,327,3.0,5.8,25,0.00,,,-99.99,FreeWX-Wi 1.02,2013-02-10 07:33:00,
2013-02-09 23:38:00,45.1,13.1,30.03,NNW,335,3.0,3.6,27,0.00,,,-99.99,FreeWX-Wi 1.02,2013-02-10 07:38:00,
2013-02-09 23:43:00,45.1,11.5,30.03,NNW,343,2.0,5.4,25,0.00,,,-99.99,FreeWX-Wi 1.02,2013-02-10 07:43:00,
2013-02-09 23:48:00,45.5,13.5,30.03,NNW,347,2.0,5.4,27,0.00,,,-99.99,FreeWX-Wi 1.02,2013-02-10 07:48:00,
2013-02-09 23:53:00,45.1,11.5,30.03,North,356,2.0,5.8,25,0.00,,,-99.99,FreeWX-Wi 1.02,2013-02-10 07:53:00,
2013-02-09 23:58:00,44.8,11.1,30.03,North,356,2.0,4.0,25,0.00,,,-99.99,FreeWX-Wi 1.02,2013-02-10 07:58:00,